FW9306 Weather Reports


Display with metric or nautical units.
time (UTC)temp
F
wind
direction
speed
MPH
gust
MPH
rain 1hr
in
rain 24hr
in
rain mn
in
humidity
%
barometer
mb
20260905060744 81 205 3.0 3.0 0.00 0.00 0.00 59 1014.8
20260905060242 81 215 4.0 5.0 0.00 0.00 0.00 59 1015.0
20260905055740 81 214 4.0 5.0 0.00 0.00 0.00 58 1014.8
20260905055235 82 222 3.0 3.0 0.00 0.00 0.00 59 1014.8
20260905054730 82 199 4.0 5.0 0.00 0.00 0.00 58 1014.9
20260905054227 82 194 6.0 7.0 0.00 0.00 0.00 57 1014.7
20260905053725 82 196 4.0 5.0 0.00 0.00 0.00 57 1014.9
20260905053221 83 188 4.0 5.0 0.00 0.00 0.00 57 1015.0
20260905052720 83 205 4.0 5.0 0.00 0.00 0.00 57 1014.6
20260905052215 83 215 5.0 6.0 0.00 0.00 0.00 56 1014.9
20260905051715 83 196 5.0 5.0 0.00 0.00 0.00 56 1014.7
20260905051212 83 198 4.0 5.0 0.00 0.00 0.00 56 1014.6
20260905050708 83 215 4.0 5.0 0.00 0.00 0.00 55 1014.5
20260905050205 84 222 3.0 3.0 0.00 0.00 0.00 55 1014.4
20260905045704 84 218 2.0 2.0 0.00 0.00 0.00 54 1014.4
20260905045200 84 182 2.0 3.0 0.00 0.00 0.00 54 1014.4
20260905044655 84 186 2.0 3.0 0.00 0.00 0.00 54 1014.4
20260905044149 84 120 1.0 2.0 0.00 0.00 0.00 54 1014.4
20260905043648 84 137 1.0 1.0 0.00 0.00 0.00 54 1014.3
20260905043143 84 196 0.0 0.0 0.00 0.00 0.00 54 1014.7
20260905042643 85 198 0.0 1.0 0.00 0.00 0.00 53 1014.5
20260905042137 85 189 1.0 2.0 0.00 0.00 0.00 52 1014.2
20260905041633 85 207 5.0 5.0 0.00 0.00 0.00 52 1014.4
20260905041128 85 195 2.0 2.0 0.00 0.00 0.00 53 1014.3
20260905040623 85 189 1.0 2.0 0.00 0.00 0.00 52 1014.3
20260905040121 86 194 2.0 3.0 0.00 0.00 0.00 51 1014.5
20260905035617 86 212 3.0 3.0 0.00 0.00 0.00 51 1014.4
20260905035113 86 198 3.0 3.0 0.00 0.00 0.00 49 1014.4
20260905034609 87 215 5.0 5.0 0.00 0.00 0.00 48 1014.2
20260905034108 87 201 4.0 5.0 0.00 0.00 0.00 48 1014.1
20260905033602 87 205 6.0 7.0 0.00 0.00 0.00 47 1014.1
20260905033058 87 208 5.0 6.0 0.00 0.00 0.00 46 1014.1
20260905032558 87 231 5.0 6.0 0.00 0.00 0.00 46 1014.1
20260905032053 87 212 5.0 6.0 0.00 0.00 0.00 45 1013.8
20260905031548 88 202 3.0 3.0 0.00 0.00 0.00 44 1014.1
20260905031048 89 268 6.0 8.0 0.00 0.00 0.00 42 1014.0
20260905030544 89 280 3.0 3.0 0.00 0.00 0.00 40 1013.6
20260905030044 89 283 3.0 3.0 0.00 0.00 0.00 40 1013.7
20260905025539 89 271 2.0 2.0 0.00 0.00 0.00 39 1013.5
20260905025035 89 264 2.0 2.0 0.00 0.00 0.00 39 1013.3
20260905024530 89 244 2.0 2.0 0.00 0.00 0.00 38 1013.4
20260905024025 89 172 3.0 3.0 0.00 0.00 0.00 38 1013.2
20260905023520 90 231 3.0 3.0 0.00 0.00 0.00 37 1013.1
20260905023015 90 312 5.0 5.0 0.00 0.00 0.00 36 1013.0
20260905022509 90 328 3.0 3.0 0.00 0.00 0.00 36 1013.1
20260905022005 90 288 2.0 2.0 0.00 0.00 0.00 35 1013.1
20260905021504 91 284 6.0 7.0 0.00 0.00 0.00 34 1013.0
20260905020959 91 73 7.0 8.0 0.00 0.00 0.00 33 1013.1
20260905020454 90 257 1.0 1.0 0.00 0.00 0.00 34 1012.8
20260905015953 90 236 1.0 1.0 0.00 0.00 0.00 34 1012.8
20260905015452 90 359 1.0 2.0 0.00 0.00 0.00 34 1012.9
20260905014951 90 337 2.0 3.0 0.00 0.00 0.00 33 1012.7
20260905014447 91 289 2.0 2.0 0.00 0.00 0.00 33 1012.8
20260905013942 91 5 1.0 1.0 0.00 0.00 0.00 33 1012.7
20260905013438 91 302 1.0 1.0 0.00 0.00 0.00 34 1012.7
20260905012933 92 291 2.0 2.0 0.00 0.00 0.00 33 1012.8
20260905012428 91 315 4.0 5.0 0.00 0.00 0.00 33 1012.8
20260905011925 92 267 2.0 3.0 0.00 0.00 0.00 33 1012.7
20260905011421 92 337 3.0 5.0 0.00 0.00 0.00 33 1012.7
20260905010916 93 347 5.0 7.0 0.00 0.00 0.00 33 1012.7
20260905010411 93 325 2.0 2.0 0.00 0.00 0.00 34 1012.5
20260905005907 93 291 5.0 6.0 0.00 0.00 0.00 33 1012.4
20260905005403 93 330 3.0 3.0 0.00 0.00 0.00 35 1012.4
20260905004857 93 335 3.0 3.0 0.00 0.00 0.00 35 1012.4
20260905004352 93 221 1.0 2.0 0.00 0.00 0.00 35 1012.3
20260905003847 93 306 4.0 5.0 0.00 0.00 0.00 35 1012.7
20260905003343 92 296 3.0 3.0 0.00 0.00 0.00 36 1012.4
20260905002838 92 275 5.0 6.0 0.00 0.00 0.00 36 1012.4
20260905002338 92 286 5.0 6.0 0.00 0.00 0.00 36 1012.3
20260905001833 94 219 4.0 5.0 0.00 0.00 0.00 35 1012.4
20260905001333 93 195 6.0 6.0 0.00 0.00 0.00 35 1012.1
20260905000828 94 357 4.0 6.0 0.00 0.00 0.00 35 1012.1
20260905000325 94 282 4.0 6.0 0.00 0.00 0.00 34 1012.2
20260904235818 94 2 4.0 5.0 0.00 0.00 0.00 35 1012.2
20260904235314 94 337 5.0 6.0 0.00 0.00 0.00 35 1012.2
20260904234808 93 281 4.0 5.0 0.00 0.00 0.00 34 1012.0
20260904234304 93 318 4.0 6.0 0.00 0.00 0.00 34 1012.2
20260904233759 93 352 6.0 7.0 0.00 0.00 0.00 35 1012.2
20260904233256 95 32 2.0 3.0 0.00 0.00 0.00 34 1012.3
20260904232752 94 233 5.0 6.0 0.00 0.00 0.00 32 1012.2
20260904232248 94 142 3.0 3.0 0.00 0.00 0.00 34 1012.3
20260904231743 94 272 5.0 6.0 0.00 0.00 0.00 33 1012.3
20260904231238 94 263 8.0 9.0 0.00 0.00 0.00 32 1012.3
20260904230739 94 82 9.0 9.0 0.00 0.00 0.00 34 1012.3
20260904230233 94 210 9.0 10.0 0.00 0.00 0.00 33 1012.2
20260904225732 93 287 11.0 13.0 0.00 0.00 0.00 34 1012.5
20260904225226 94 301 8.0 9.0 0.00 0.00 0.00 35 1012.4
20260904224725 94 318 5.0 6.0 0.00 0.00 0.00 34 1012.3
20260904224221 94 306 5.0 6.0 0.00 0.00 0.00 35 1012.5
20260904223720 93 268 3.0 3.0 0.00 0.00 0.00 37 1012.8
20260904223215 95 316 7.0 8.0 0.00 0.00 0.00 36 1012.5
20260904222711 93 309 7.0 8.0 0.00 0.00 0.00 37 1012.5
20260904222207 94 225 10.0 10.0 0.00 0.00 0.00 36 1012.3
20260904221705 94 203 10.0 13.0 0.00 0.00 0.00 36 1012.5
20260904221201 95 311 6.0 7.0 0.00 0.00 0.00 36 1012.8
20260904220655 94 321 3.0 3.0 0.00 0.00 0.00 36 1012.8
20260904220151 95 1 7.0 8.0 0.00 0.00 0.00 35 1013.1
20260904215650 95 305 4.0 5.0 0.00 0.00 0.00 37 1012.9
20260904215147 94 347 5.0 7.0 0.00 0.00 0.00 37 1012.7
20260904214641 94 96 4.0 5.0 0.00 0.00 0.00 37 1013.0
20260904214137 93 302 5.0 6.0 0.00 0.00 0.00 37 1013.1
20260904213635 94 257 5.0 8.0 0.00 0.00 0.00 37 1013.1
20260904213132 93 227 4.0 5.0 0.00 0.00 0.00 36 1013.0
20260904212632 93 322 3.0 6.0 0.00 0.00 0.00 36 1013.2
20260904212127 94 351 6.0 7.0 0.00 0.00 0.00 37 1013.2
20260904211626 93 307 5.0 6.0 0.00 0.00 0.00 37 1013.5
20260904211122 93 231 2.0 2.0 0.00 0.00 0.00 35 1013.3
20260904210622 94 235 7.0 9.0 0.00 0.00 0.00 36 1013.4
20260904210117 93 258 1.0 2.0 0.00 0.00 0.00 37 1013.5
20260904205613 92 283 4.0 7.0 0.00 0.00 0.00 37 1013.6
20260904205109 93 278 7.0 9.0 0.00 0.00 0.00 38 1013.5
20260904204604 93 162 2.0 2.0 0.00 0.00 0.00 35 1013.6
20260904204101 91 268 3.0 3.0 0.00 0.00 0.00 38 1013.6
20260904203556 92 299 8.0 8.0 0.00 0.00 0.00 37 1013.6
20260904203053 93 280 8.0 9.0 0.00 0.00 0.00 37 1014.0
20260904202549 92 346 5.0 7.0 0.00 0.00 0.00 39 1014.1
20260904202045 93 252 3.0 3.0 0.00 0.00 0.00 39 1014.1
20260904201544 93 214 5.0 8.0 0.00 0.00 0.00 41 1014.3
20260904201040 91 172 2.0 2.0 0.00 0.00 0.00 44 1014.3
20260904200538 91 284 4.0 5.0 0.00 0.00 0.00 43 1014.2
20260904200034 92 262 8.0 9.0 0.00 0.00 0.00 42 1014.4
20260904195532 91 226 5.0 7.0 0.00 0.00 0.00 39 1014.4
20260904195032 92 202 5.0 6.0 0.00 0.00 0.00 40 1014.4
20260904194527 93 288 2.0 3.0 0.00 0.00 0.00 40 1014.6
20260904194021 91 248 2.0 3.0 0.00 0.00 0.00 41 1014.7
20260904193516 92 268 3.0 3.0 0.00 0.00 0.00 42 1014.5
20260904193013 90 249 1.0 1.0 0.00 0.00 0.00 43 1014.7
20260904192511 91 23 4.0 5.0 0.00 0.00 0.00 40 1014.9
20260904192008 90 241 1.0 1.0 0.00 0.00 0.00 44 1014.9
20260904191504 89 186 4.0 5.0 0.00 0.00 0.00 45 1015.3
20260904191001 89 234 7.0 8.0 0.00 0.00 0.00 44 1015.1
20260904190456 90 234 6.0 7.0 0.00 0.00 0.00 45 1015.3
20260904185952 90 256 2.0 2.0 0.00 0.00 0.00 46 1015.3
20260904185448 89 219 1.0 2.0 0.00 0.00 0.00 44 1015.4
20260904184943 89 242 5.0 6.0 0.00 0.00 0.00 42 1015.4
20260904184443 89 234 7.0 8.0 0.00 0.00 0.00 43 1015.5
20260904183938 89 248 5.0 7.0 0.00 0.00 0.00 45 1015.5
20260904183433 89 10 4.0 5.0 0.00 0.00 0.00 48 1015.5
20260904182929 91 359 4.0 5.0 0.00 0.00 0.00 44 1015.6
20260904182424 89 13 3.0 5.0 0.00 0.00 0.00 49 1015.7
20260904181919 89 328 7.0 8.0 0.00 0.00 0.00 49 1015.7
20260904181414 87 290 1.0 1.0 0.00 0.00 0.00 51 1015.9
20260904180909 87 243 3.0 3.0 0.00 0.00 0.00 50 1015.9
20260904180404 88 203 1.0 2.0 0.00 0.00 0.00 51 1016.1
20260904175903 87 224 3.0 3.0 0.00 0.00 0.00 52 1016.0
20260904175403 88 189 1.0 2.0 0.00 0.00 0.00 51 1016.0
20260904174856 87 258 5.0 6.0 0.00 0.00 0.00 52 1016.1
20260904174353 86 217 2.0 2.0 0.00 0.00 0.00 54 1016.0
20260904173848 86 257 4.0 5.0 0.00 0.00 0.00 53 1016.1
20260904173344 86 289 6.0 7.0 0.00 0.00 0.00 53 1015.9
20260904172839 87 230 4.0 5.0 0.00 0.00 0.00 53 1016.2
20260904172338 86 229 2.0 2.0 0.00 0.00 0.00 55 1016.2
20260904171834 87 201 2.0 2.0 0.00 0.00 0.00 53 1016.1
20260904171329 87 192 5.0 7.0 0.00 0.00 0.00 52 1016.3
20260904170825 87 174 2.0 3.0 0.00 0.00 0.00 53 1016.4
20260904170321 87 215 2.0 2.0 0.00 0.00 0.00 53 1016.4
20260904165820 87 185 0.0 0.0 0.00 0.00 0.00 55 1016.4
20260904165314 86 202 1.0 2.0 0.00 0.00 0.00 56 1016.6
20260904164809 87 203 1.0 1.0 0.00 0.00 0.00 54 1016.3
20260904164303 87 197 1.0 1.0 0.00 0.00 0.00 54 1016.3
20260904163800 84 153 1.0 1.0 0.00 0.00 0.00 58 1016.2
20260904163254 85 329 3.0 5.0 0.00 0.00 0.00 57 1016.3
20260904162754 85 33 2.0 2.0 0.00 0.00 0.00 58 1016.1
20260904162249 84 279 2.0 2.0 0.00 0.00 0.00 59 1016.2
20260904161744 84 6 1.0 1.0 0.00 0.00 0.00 59 1016.1
20260904161244 83 305 3.0 3.0 0.00 0.00 0.00 61 1016.2
20260904160740 84 243 1.0 1.0 0.00 0.00 0.00 60 1016.2
20260904160236 83 184 0.0 1.0 0.00 0.00 0.00 61 1016.2
20260904155735 83 212 1.0 2.0 0.00 0.00 0.00 60 1016.2
20260904155235 83 204 3.0 3.0 0.00 0.00 0.00 60 1016.2
20260904154733 83 293 3.0 3.0 0.00 0.00 0.00 61 1016.2
20260904154228 83 154 3.0 3.0 0.00 0.00 0.00 60 1016.2
20260904153724 82 194 2.0 2.0 0.00 0.00 0.00 62 1016.2
20260904153219 82 251 5.0 6.0 0.00 0.00 0.00 64 1016.2
20260904152715 82 230 4.0 6.0 0.00 0.00 0.00 64 1016.2
20260904152210 81 200 5.0 6.0 0.00 0.00 0.00 65 1016.3
20260904151705 80 206 4.0 5.0 0.00 0.00 0.00 65 1016.2
20260904151204 81 225 5.0 6.0 0.00 0.00 0.00 65 1016.1
20260904150700 80 244 4.0 5.0 0.00 0.00 0.00 66 1016.2
20260904150155 80 226 3.0 3.0 0.00 0.00 0.00 67 1016.2
20260904145653 80 262 2.0 2.0 0.00 0.00 0.00 67 1016.1
20260904145149 79 230 4.0 5.0 0.00 0.00 0.00 68 1016.0
20260904144644 79 249 3.0 3.0 0.00 0.00 0.00 68 1016.1
20260904144140 79 274 3.0 3.0 0.00 0.00 0.00 68 1016.0
20260904143636 79 229 2.0 2.0 0.00 0.00 0.00 69 1016.1
20260904143132 79 213 2.0 2.0 0.00 0.00 0.00 69 1016.1
20260904142628 79 210 2.0 2.0 0.00 0.00 0.00 68 1016.2
20260904142124 78 216 1.0 1.0 0.00 0.00 0.00 69 1016.0
20260904141619 78 210 2.0 2.0 0.00 0.00 0.00 69 1015.9
20260904141114 78 206 3.0 3.0 0.00 0.00 0.00 70 1016.0
20260904140610 78 201 2.0 3.0 0.00 0.00 0.00 70 1015.7
20260904140104 77 190 0.0 0.0 0.00 0.00 0.00 71 1015.8
20260904135603 77 196 3.0 3.0 0.00 0.00 0.00 72 1015.7
20260904135059 77 185 0.0 1.0 0.00 0.00 0.00 72 1015.7
20260904134555 76 161 1.0 1.0 0.00 0.00 0.00 73 1015.5
20260904134048 76 193 4.0 5.0 0.00 0.00 0.00 73 1015.3
20260904133543 75 176 1.0 1.0 0.00 0.00 0.00 74 1015.5
20260904133040 75 187 2.0 3.0 0.00 0.00 0.00 75 1015.3
20260904132539 74 208 4.0 5.0 0.00 0.00 0.00 76 1015.1
20260904132039 74 198 2.0 2.0 0.00 0.00 0.00 77 1015.0
20260904131539 74 194 0.0 0.0 0.00 0.00 0.00 78 1015.0
20260904131035 74 179 0.0 0.0 0.00 0.00 0.00 78 1014.9
20260904130534 74 198 1.0 1.0 0.00 0.00 0.00 78 1015.0
20260904130029 74 198 1.0 1.0 0.00 0.00 0.00 79 1014.8
20260904125526 74 197 0.0 1.0 0.00 0.00 0.00 78 1014.6
20260904125020 74 204 0.0 0.0 0.00 0.00 0.00 78 1014.7
20260904124516 74 204 3.0 3.0 0.00 0.00 0.00 78 1014.7
20260904124012 74 185 3.0 3.0 0.00 0.00 0.00 77 1014.7
20260904123511 74 206 0.0 0.0 0.00 0.00 0.00 77 1014.7
20260904123007 74 190 0.0 1.0 0.00 0.00 0.00 77 1014.4
20260904122501 75 197 3.0 3.0 0.00 0.00 0.00 77 1014.3
20260904121955 74 206 1.0 2.0 0.00 0.00 0.00 77 1014.4
20260904121452 74 198 0.0 0.0 0.00 0.00 0.00 77 1014.2
20260904120948 74 194 0.0 0.0 0.00 0.00 0.00 77 1014.6
20260904120444 74 194 1.0 1.0 0.00 0.00 0.00 77 1014.3
20260904115938 75 203 0.0 0.0 0.00 0.00 0.00 77 1014.1
20260904115433 75 184 2.0 2.0 0.00 0.00 0.00 76 1014.3
20260904114928 75 211 1.0 1.0 0.00 0.00 0.00 77 1014.2
20260904114427 75 200 0.0 0.0 0.00 0.00 0.00 77 1014.0
20260904113924 75 199 1.0 1.0 0.00 0.00 0.00 77 1014.2
20260904113423 75 144 1.0 1.0 0.00 0.00 0.00 76 1014.3
20260904112922 75 181 0.0 0.0 0.00 0.00 0.00 76 1014.2
20260904112418 75 198 0.0 0.0 0.00 0.00 0.00 76 1014.1
20260904111914 75 207 1.0 2.0 0.00 0.00 0.00 76 1014.3
20260904111409 75 201 0.0 0.0 0.00 0.00 0.00 76 1014.4
20260904110905 75 202 1.0 1.0 0.00 0.00 0.00 76 1014.3
20260904110403 75 182 0.0 0.0 0.00 0.00 0.00 76 1014.4
20260904105859 75 188 0.0 0.0 0.00 0.00 0.00 76 1014.3
20260904105354 75 200 0.0 0.0 0.00 0.00 0.00 75 1014.2
20260904104849 75 204 0.0 0.0 0.00 0.00 0.00 75 1014.1
20260904104343 75 195 0.0 0.0 0.00 0.00 0.00 75 1014.2
20260904103841 76 193 0.0 0.0 0.00 0.00 0.00 75 1014.1
20260904103335 76 201 0.0 1.0 0.00 0.00 0.00 74 1014.2
20260904102831 76 204 1.0 1.0 0.00 0.00 0.00 75 1014.1
20260904102326 76 213 1.0 1.0 0.00 0.00 0.00 74 1014.0
20260904101822 76 199 0.0 0.0 0.00 0.00 0.00 73 1014.2
20260904101318 77 190 0.0 0.0 0.00 0.00 0.00 72 1014.2
20260904100814 77 188 0.0 0.0 0.00 0.00 0.00 72 1014.1
20260904100309 77 184 0.0 0.0 0.00 0.00 0.00 72 1014.0
20260904095804 77 180 0.0 0.0 0.00 0.00 0.00 72 1014.1
20260904095259 76 169 0.0 0.0 0.00 0.00 0.00 73 1014.0
20260904094754 76 181 0.0 0.0 0.00 0.00 0.00 73 1014.3
20260904094248 77 205 1.0 1.0 0.00 0.00 0.00 73 1014.2
20260904093745 77 174 0.0 0.0 0.00 0.00 0.00 72 1014.2
20260904093245 76 179 0.0 0.0 0.00 0.00 0.00 73 1014.1
20260904092741 76 196 0.0 0.0 0.00 0.00 0.00 73 1014.1
20260904092237 76 189 0.0 0.0 0.00 0.00 0.00 73 1014.2
20260904091733 76 201 0.0 0.0 0.00 0.00 0.00 73 1013.8
20260904091227 76 198 0.0 0.0 0.00 0.00 0.00 73 1013.7
20260904090723 77 199 1.0 1.0 0.00 0.00 0.00 73 1014.1
20260904090218 77 196 0.0 0.0 0.00 0.00 0.00 72 1014.0
20260904085713 77 190 0.0 0.0 0.00 0.00 0.00 72 1014.1
20260904085208 77 196 0.0 0.0 0.00 0.00 0.00 71 1014.1
20260904084703 77 197 0.0 0.0 0.00 0.00 0.00 71 1014.3
20260904084159 77 183 0.0 0.0 0.00 0.00 0.00 71 1014.1
20260904083655 77 169 0.0 0.0 0.00 0.00 0.00 71 1014.4
20260904083151 77 190 0.0 0.0 0.00 0.00 0.00 71 1014.1
20260904082646 77 187 0.0 0.0 0.00 0.00 0.00 71 1014.2
20260904082141 77 166 0.0 1.0 0.00 0.00 0.00 71 1014.2
20260904081636 77 196 0.0 0.0 0.00 0.00 0.00 70 1014.3
20260904081132 77 170 0.0 0.0 0.00 0.00 0.00 71 1014.4
20260904080627 77 198 0.0 0.0 0.00 0.00 0.00 70 1014.3
20260904080123 78 165 0.0 1.0 0.00 0.00 0.00 70 1014.5
20260904075620 78 138 1.0 1.0 0.00 0.00 0.00 70 1014.4
20260904075119 78 181 0.0 1.0 0.00 0.00 0.00 69 1014.4
20260904074618 78 181 1.0 1.0 0.00 0.00 0.00 69 1014.3
20260904074114 78 181 1.0 2.0 0.00 0.00 0.00 69 1014.3
20260904073608 78 199 1.0 2.0 0.00 0.00 0.00 69 1014.2
20260904073105 78 180 0.0 0.0 0.00 0.00 0.00 69 1014.3
20260904072600 78 219 0.0 0.0 0.00 0.00 0.00 69 1014.2
20260904072055 78 203 0.0 0.0 0.00 0.00 0.00 68 1014.3
20260904071551 79 117 1.0 1.0 0.00 0.00 0.00 68 1014.2
20260904071046 79 215 1.0 1.0 0.00 0.00 0.00 68 1014.4
20260904070544 78 205 0.0 0.0 0.00 0.00 0.00 68 1014.2
20260904070040 79 196 1.0 1.0 0.00 0.00 0.00 68 1014.3
20260904065534 79 222 2.0 2.0 0.00 0.00 0.00 67 1014.4
20260904065031 79 197 0.0 0.0 0.00 0.00 0.00 67 1014.4
20260904064527 79 208 0.0 1.0 0.00 0.00 0.00 66 1014.2
20260904064027 79 137 2.0 3.0 0.00 0.00 0.00 68 1014.0
20260904063523 78 149 1.0 2.0 0.00 0.00 0.00 68 1014.2
20260904063018 79 194 0.0 0.0 0.00 0.00 0.00 68 1014.2
20260904062514 79 171 0.0 1.0 0.00 0.00 0.00 68 1014.3
20260904062009 79 197 2.0 2.0 0.00 0.00 0.00 67 1014.3
20260904061505 79 201 1.0 1.0 0.00 0.00 0.00 67 1014.2